Content
SEND FEEDBACK

Daily
Averages
Monthly
Summary
United States of America

OLIVEBRIDGE, NEW YORK


Home > North America > United States > New York
Elevation: 158 meters     Latitude: 41 57N     Longitude: 074 13W

WEATHER
 
SELECT A DAY
Number of Records: 199,225;   Date Range: 1/1/95 - 12/19/14
 
SHARE

PRINT THIS DATA

[ ← Previous Day ]
WEATHER ALMANAC - 31 JANUARY, 2013
[ Next Day → ]
[ °F ]   °C
Weather ElementAverageHighLow
Temperature8.8 °C16.7 °C (2:53 am)-1.7 °C (11:53 pm)
Dewpoint2.5 °C13.3 °C (2:53 am)-13.9 °C (11:53 pm)
Humidity68.2 %96 % (12:53 am)28 % (3:53 pm)
Barometer991.5 hPa1006.1 hPa (11:53 pm)981.4 hPa (5:53 am)
Wind Speed19.8 km/h42.6 km/h (8:53 am)
Wind Gust57.5 km/h (8:53 am)
Weather ElementAverage
Visibility11.3 km
Wind DirectionS (181.1 °)

Weather ElementTotal
Precipitation57.15 mm
Heating Degree Days10.8 (Base 18.3)
Averaged from 35 records on 31 January, 2013
WEATHER CONDITIONS BREAKOUT
WIND DIRECTION BREAKOUT
WEATHER BY HOUR - 31 JANUARY, 2013
[ °F ]   °C
Local TimeTemperatureDewpointHumidityBarometerVisibilityWind DirectionWind SpeedGust SpeedPrecipitationEventsConditions
12:12 AM11 °C10 °C94 %992.9 hPa4 kmCalm0.25 mmRainLight Rain
12:24 AM11 °C10 °C94 %992.2 hPa1.6 kmCalm0.51 mmRainLight Rain
12:32 AM10 °C9 °C94 %992.2 hPa0.8 kmCalm0.51 mmFogFog
12:53 AM10 °C9.4 °C96 %990.9 hPa1.6 kmCalm1.52 mmRainLight Rain
1:04 AM11 °C9 °C88 %990.2 hPa4.8 kmESE (120°)7.4 km/h0.25 mmRainLight Rain
1:24 AM11 °C10 °C94 %989.2 hPa4.8 kmCalm0.51 mmRainLight Rain
1:32 AM11 °C10 °C94 %988.8 hPa4 kmCalm0.76 mmRainLight Rain
1:40 AM12 °C11 °C94 %988.1 hPa9.7 kmVariable5.6 km/h1.02 mmRainLight Rain
1:53 AM12.8 °C11.7 °C93 %987.5 hPa16.1 kmSouth (190°)11.1 km/h1.27 mmRainLight Rain
2:53 AM16.7 °C13.3 °C80 %983.4 hPa16.1 kmSouth (170°)25.9 km/h48.1 km/h0.51 mmRainLight Rain
3:42 AM15 °C13 °C88 %982.7 hPa4 kmWSW (240°)22.2 km/h35.2 km/h3.56 mmRainHeavy Rain
3:46 AM15 °C13 °C88 %982.7 hPa2.9 kmSW (220°)14.8 km/h35.2 km/h5.33 mmRainHeavy Rain
3:53 AM15 °C12.8 °C87 %982.1 hPa2.9 kmVariable11.1 km/h33.3 km/h7.62 mmRainHeavy Rain
4:21 AM14 °C13 °C94 %983.7 hPa4.8 kmSSW (210°)9.3 km/h9.65 mmRainRain
4:48 AM14 °C12 °C88 %984.4 hPa9.7 kmSSW (210°)14.8 km/h10.67 mmRainLight Rain
4:53 AM13.9 °C12.2 °C89 %983.7 hPa9.7 kmSSW (200°)13 km/h10.92 mmRainRain
5:53 AM15 °C11.1 °C78 %981.4 hPa16.1 kmSSW (200°)11.1 km/h1.27 mmMostly Cloudy
6:53 AM12.8 °C8.3 °C74 %983.4 hPa8 kmWSW (240°)40.7 km/h51.8 km/h0.76 mmRainLight Rain
7:00 AM12 °C7 °C72 %984.1 hPa16.1 kmWSW (240°)27.8 km/h51.8 km/h0 mmOvercast
7:53 AM9.4 °C1.7 °C59 %986.5 hPa16.1 kmWest (260°)35.2 km/h48.1 km/h0.25 mmRainLight Rain
8:53 AM8.3 °C0 °C56 %988.8 hPa16.1 kmWSW (250°)42.6 km/h57.5 km/h0 mmMostly Cloudy
9:53 AM8.3 °C-3.3 °C44 %990.9 hPa16.1 kmWSW (250°)29.6 km/h51.8 km/hScattered Clouds
10:53 AM6.1 °C-3.9 °C49 %992.6 hPa16.1 kmWNW (290°)27.8 km/h46.3 km/hOvercast
11:53 AM6.7 °C-7.2 °C37 %993.6 hPa16.1 kmWest (280°)33.3 km/h57.5 km/hScattered Clouds
12:53 PM7.2 °C-6.7 °C37 %994.2 hPa16.1 kmWSW (240°)27.8 km/h50.1 km/hScattered Clouds
1:53 PM6.7 °C-8.9 °C32 %994.9 hPa16.1 kmWest (260°)35.2 km/h44.4 km/hPartly Cloudy
2:53 PM6.1 °C-8.3 °C35 %996.3 hPa16.1 kmWSW (250°)31.5 km/h53.8 km/hMostly Cloudy
3:53 PM5.6 °C-11.7 °C28 %997.3 hPa16.1 kmWest (270°)38.9 km/h57.5 km/hMostly Cloudy
4:53 PM2.8 °C-7.8 °C46 %999.7 hPa16.1 kmWSW (250°)37 km/h53.8 km/hScattered Clouds
5:53 PM1.1 °C-6.7 °C56 %1001.4 hPa16.1 kmWSW (250°)25.9 km/h44.4 km/hMostly Cloudy
7:53 PM0.6 °C-9.4 °C48 %1003.7 hPa16.1 kmWSW (250°)18.5 km/hScattered Clouds
8:53 PM0 °C-11.7 °C42 %1004.4 hPa16.1 kmWSW (240°)27.8 km/h37 km/hPartly Cloudy
9:53 PM-0.6 °C-9.4 °C52 %1005.1 hPa16.1 kmWest (260°)20.4 km/h33.3 km/hScattered Clouds
10:53 PM-1.1 °C-11.1 °C47 %1005.4 hPa16.1 kmWSW (250°)25.9 km/h44.4 km/h0 mmScattered Clouds
11:53 PM-1.7 °C-13.9 °C40 %1006.1 hPa16.1 kmWSW (250°)18.5 km/h33.3 km/hPartly Cloudy
Hourly data recorded from KPOU, located 0 kilometers away from Olivebridge, New York







STORIES FROM OUR PARTNERS